Total_Precipitation_Accumulation
2.34 2.78 3.49 4.54 5.09 5.75 5.62 5.18 4.89 4.69 4.66 4.64 4.63 4.59 4.65 4.78 4.88 4.77 4.55 4.51 4.40 4.54 4.83 4.66 4.60 4.36 4.27 4.32 4.31 4.16 4.05 3.84 3.71 3.60 3.24 2.71 2.27 2.06 1.94 1.96 2.03 2.02 1.96
2.53 3.19 3.76 4.36 4.80 4.95 5.08 5.30 5.27 5.20 4.95 4.94 5.20 5.55 5.76 5.62 5.63 5.57 5.54 5.34 5.15 5.15 5.16 5.11 4.74 4.51 4.38 4.23 4.13 4.03 3.94 3.68 3.61 3.72 3.71 3.22 2.82 2.27 1.78 1.88 1.91 1.92 1.98
2.24 2.93 3.48 3.92 4.46 4.83 4.89 5.17 5.23 5.39 5.67 5.87 5.95 6.25 6.51 6.32 6.10 5.74 5.58 5.33 5.03 4.98 4.93 4.86 4.63 4.49 4.27 4.12 4.07 3.98 3.93 3.73 3.61 3.65 3.87 3.69 3.14 2.56 2.11 1.89 1.85 1.88 1.95
2.15 2.50 2.97 3.29 3.71 4.06 4.38 4.79 4.98 5.17 5.74 6.49 6.73 6.74 6.81 6.64 6.28 5.95 5.64 5.32 4.96 4.66 4.53 4.59 4.52 4.37 4.14 3.98 3.66 3.64 3.75 3.89 3.68 3.52 3.28 3.13 2.89 2.83 2.63 2.30 2.06 1.93 1.90
2.05 2.23 2.36 2.75 3.29 3.55 3.81 4.33 4.76 5.21 5.85 6.38 6.73 6.94 6.82 6.55 6.23 5.77 5.43 5.13 4.74 4.33 4.06 4.11 4.05 3.87 3.68 3.54 3.34 3.33 3.37 3.46 3.44 3.39 3.24 3.11 2.90 2.68 2.67 2.55 2.29 2.14 1.94
1.90 2.02 2.23 2.47 2.80 3.13 3.43 3.79 4.37 5.04 5.47 5.83 6.16 6.33 6.41 6.29 5.96 5.48 5.15 4.82 4.47 4.11 3.78 3.46 3.43 3.39 3.25 3.06 2.99 2.97 2.94 3.02 3.08 3.14 3.03 2.92 2.85 2.74 2.74 2.64 2.44 2.32 2.12
1.79 2.08 2.25 2.46 2.70 3.00 3.37 3.74 4.15 4.70 5.00 5.08 5.24 5.53 5.71 5.71 5.56 5.33 4.99 4.56 4.08 3.61 3.33 3.08 2.98 2.92 2.88 2.77 2.67 2.68 2.56 2.51 2.60 2.59 2.67 2.68 2.56 2.45 2.56 2.67 2.56 2.33 2.18
2.02 2.14 2.20 2.38 2.70 2.91 3.09 3.48 3.71 4.22 4.50 4.38 4.47 4.77 5.01 4.95 4.81 4.58 4.11 3.68 3.34 3.06 2.82 2.69 2.48 2.29 2.19 2.13 2.24 2.31 2.27 2.23 2.20 2.12 2.36 2.43 2.32 2.30 2.34 2.42 2.64 2.62 2.38
2.09 2.18 2.10 2.20 2.43 2.69 2.88 3.06 3.23 3.59 3.85 3.83 3.87 3.90 3.91 3.91 3.83 3.60 3.24 2.88 2.65 2.42 2.33 2.22 2.16 2.07 1.96 1.90 1.91 1.97 2.06 2.06 1.98 1.98 2.11 2.10 2.03 2.06 2.10 2.22 2.41 2.70 2.65
1.85 1.96 2.04 2.14 2.06 2.14 2.44 2.68 2.75 2.91 3.06 3.06 3.06 3.06 3.13 3.18 3.09 2.81 2.45 2.30 2.24 2.11 1.98 1.92 1.87 1.87 1.82 1.80 1.86 1.84 1.90 1.97 1.87 1.85 1.84 1.81 1.76 1.87 1.87 1.98 2.10 2.30 2.54
1.73 1.86 1.98 2.04 1.91 1.83 1.93 2.16 2.38 2.49 2.62 2.71 2.75 2.64 2.60 2.51 2.44 2.29 2.05 2.01 2.00 1.89 1.79 1.71 1.66 1.62 1.64 1.65 1.69 1.63 1.58 1.57 1.56 1.47 1.45 1.49 1.59 1.75 1.74 1.75 1.89 2.10 2.34
1.89 1.94 2.11 2.06 1.95 1.98 1.97 1.96 2.07 2.19 2.30 2.37 2.48 2.51 2.42 2.20 2.10 2.01 1.90 1.79 1.72 1.68 1.66 1.55 1.49 1.45 1.40 1.37 1.33 1.33 1.35 1.36 1.35 1.35 1.41 1.41 1.49 1.64 1.68 1.73 1.78 1.94 2.21
2.22 2.19 2.23 2.16 2.06 2.04 1.92 1.78 1.83 1.95 2.04 2.15 2.19 2.15 2.09 1.96 1.85 1.84 1.84 1.71 1.61 1.53 1.49 1.46 1.42 1.36 1.38 1.29 1.18 1.17 1.24 1.22 1.20 1.27 1.34 1.42 1.67 1.70 1.69 1.75 1.79 1.86 1.96
2.39 2.34 2.32 2.30 2.21 2.11 1.93 1.79 1.75 1.72 1.68 1.79 1.91 1.91 1.89 1.85 1.76 1.66 1.64 1.61 1.56 1.49 1.44 1.45 1.37 1.32 1.30 1.28 1.22 1.18 1.22 1.23 1.20 1.24 1.32 1.42 1.62 1.73 1.82 1.77 1.87 1.92 2.06
2.48 2.43 2.49 2.43 2.39 2.35 2.20 2.06 1.90 1.76 1.68 1.65 1.62 1.70 1.82 1.83 1.77 1.70 1.66 1.61 1.53 1.41 1.41 1.41 1.32 1.31 1.28 1.21 1.21 1.20 1.22 1.30 1.31 1.25 1.24 1.28 1.40 1.54 1.54 1.42 1.57 1.78 2.05
2.51 2.57 2.71 2.67 2.62 2.57 2.39 2.23 2.06 1.80 1.65 1.62 1.59 1.63 1.70 1.70 1.65 1.62 1.58 1.53 1.48 1.48 1.46 1.44 1.38 1.31 1.06 1.14 1.16 1.15 1.22 1.30 1.31 1.28 1.26 1.19 1.15 1.11 1.10 1.14 1.22 1.43 1.75
2.81 2.85 2.78 2.77 2.72 2.65 2.65 2.64 2.36 2.04 1.89 1.76 1.64 1.62 1.59 1.55 1.52 1.41 1.39 1.46 1.48 1.47 1.41 1.38 1.39 1.32 1.18 1.16 1.08 1.09 1.21 1.33 1.41 1.45 1.41 1.10 0.93 1.04 1.05 1.10 1.16 1.28 1.46
2.69 2.75 2.69 2.70 2.68 2.60 2.58 2.57 2.47 2.22 1.92 1.78 1.64 1.53 1.53 1.49 1.50 1.47 1.45 1.49 1.51 1.44 1.44 1.40 1.37 1.35 1.23 1.16 1.07 1.10 1.16 1.31 1.34 1.34 1.36 1.34 1.20 1.10 1.19 1.26 1.32 1.42 1.52
2.53 2.60 2.69 2.73 2.72 2.63 2.45 2.37 2.27 2.17 2.03 1.80 1.57 1.44 1.45 1.43 1.42 1.44 1.44 1.48 1.50 1.42 1.37 1.36 1.40 1.45 1.38 1.21 1.09 1.02 1.03 1.17 1.22 1.18 1.16 1.14 1.17 1.24 1.41 1.53 1.72 1.80 1.88
2.50 2.61 2.72 2.78 2.77 2.71 2.40 2.25 2.14 1.99 1.82 1.58 1.43 1.37 1.39 1.33 1.30 1.36 1.41 1.44 1.47 1.43 1.38 1.35 1.39 1.39 1.29 1.12 0.94 0.91 0.91 1.06 1.13 1.21 1.18 1.05 0.99 1.14 1.32 1.55 1.88 2.00 2.06
2.45 2.54 2.58 2.61 2.57 2.55 2.33 2.21 2.01 1.85 1.55 1.32 1.27 1.31 1.31 1.26 1.21 1.25 1.31 1.38 1.36 1.39 1.41 1.33 1.31 1.22 1.08 1.00 0.87 0.84 0.83 0.96 1.09 1.13 1.16 1.11 1.02 1.07 1.31 1.55 1.78 1.92 1.99
2.28 2.36 2.41 2.40 2.30 2.22 2.14 2.03 1.85 1.58 1.38 1.26 1.21 1.28 1.35 1.18 1.09 1.18 1.17 1.21 1.37 1.34 1.31 1.33 1.23 1.08 1.00 0.86 0.79 0.78 0.75 0.81 1.02 1.20 1.19 1.21 1.18 1.19 1.37 1.51 1.76 1.98 2.08
2.04 2.09 2.00 1.89 1.91 1.86 1.82 1.75 1.57 1.37 1.28 1.30 1.35 1.34 1.31 1.24 1.23 1.25 1.20 1.22 1.31 1.32 1.24 1.22 1.13 0.99 0.95 0.87 0.80 0.80 0.82 0.85 0.96 1.14 1.22 1.23 1.22 1.30 1.55 1.72 1.91 2.09 2.18
1.67 1.75 1.73 1.65 1.62 1.56 1.48 1.42 1.29 1.26 1.27 1.32 1.41 1.49 1.36 1.22 1.23 1.29 1.18 1.18 1.18 1.19 1.17 1.14 1.12 1.05 1.00 0.89 0.82 0.85 0.90 0.94 0.96 1.05 1.22 1.32 1.36 1.47 1.75 1.96 2.14 2.22 2.15
1.41 1.42 1.53 1.55 1.43 1.32 1.28 1.22 1.13 1.15 1.30 1.35 1.32 1.37 1.31 1.25 1.25 1.24 1.11 1.05 1.01 1.05 1.12 1.11 1.12 1.10 1.01 0.94 0.96 0.90 0.86 0.89 0.91 1.00 1.17 1.34 1.47 1.62 1.82 2.00 2.08 2.07 1.99
1.31 1.35 1.39 1.37 1.29 1.21 1.14 1.08 1.01 1.05 1.23 1.31 1.27 1.20 1.17 1.19 1.15 1.19 1.17 1.11 1.04 1.00 0.94 0.96 0.92 0.89 0.93 0.93 0.89 0.84 0.84 0.86 0.91 0.98 1.21 1.37 1.46 1.61 1.79 1.94 1.95 1.89 1.80